VE7GEL Weather Reports


Display with metric or nautical units.
time (UTC)temp
F
wind
direction
speed
MPH
gust
MPH
rain 1hr
in
rain 24hr
in
rain mn
in
humidity
%
barometer
mb
20260504201641 62 187 1.0 4.0 0.00 0.00 0.00 65 1010.3
20260504201502 62 57 1.0 4.0 0.00 0.00 0.00 64 1010.6
20260504200140 63 0 1.0 4.0 0.00 0.00 0.00 65 1010.4
20260504194639 65 201 1.0 4.0 0.00 0.00 0.00 56 1010.2
20260504193139 65 0 1.0 4.0 0.00 0.00 0.00 54 1010.3
20260504193002 65 34 1.0 4.0 0.00 0.00 0.00 54 1010.6
20260504191637 64 170 1.0 4.0 0.00 0.00 0.00 56 1010.5
20260504190137 63 0 1.0 3.0 0.00 0.00 0.00 57 1010.5
20260504184638 63 217 1.0 4.0 0.00 0.00 0.00 57 1010.6
20260504184502 63 0 1.0 4.0 0.00 0.00 0.00 56 1010.9
20260504183135 63 218 1.0 4.0 0.00 0.00 0.00 57 1010.5
20260504181637 62 188 1.0 4.0 0.00 0.00 0.00 62 1010.6
20260504180137 62 37 1.0 3.0 0.00 0.00 0.00 64 1010.6
20260504180002 62 221 1.0 3.0 0.00 0.00 0.00 63 1010.9
20260504174633 63 235 1.0 3.0 0.00 0.00 0.00 58 1010.6
20260504173133 63 0 1.0 4.0 0.00 0.00 0.00 58 1010.6
20260504171630 63 0 0.0 2.0 0.00 0.00 0.00 58 1010.7
20260504170130 63 0 0.0 2.0 0.00 0.00 0.00 57 1010.6
20260504160130 61 0 0.0 1.0 0.00 0.00 0.00 67 1010.6
20260504150127 58 0 0.0 2.0 0.00 0.00 0.00 76 1010.3
20260504140124 56 0 0.0 1.0 0.00 0.00 0.00 84 1009.6
20260504130124 54 300 0.0 2.0 0.00 0.00 0.00 87 1009.3
20260504120118 55 248 0.0 2.0 0.00 0.00 0.00 85 1009.2
20260504110114 58 0 0.0 2.0 0.00 0.00 0.00 75 1009.0
20260504100111 60 0 0.0 1.0 0.00 0.00 0.00 72 1008.9
20260504090105 62 0 0.0 2.0 0.00 0.00 0.00 70 1008.8
20260504081605 61 101 0.0 1.0 0.00 0.00 0.00 73 1008.8
20260504081502 61 0 0.0 1.0 0.00 0.00 0.00 73 1009.1
20260504080105 61 0 0.0 2.0 0.00 0.00 0.00 72 1008.8
20260504070109 61 0 0.0 2.0 0.00 0.00 0.00 68 1009.0
20260504044600 67 0 0.0 2.0 0.00 0.00 0.00 52 1009.4
20260504044502 67 0 0.0 1.0 0.00 0.00 0.00 51 1009.7
20260504043100 67 0 0.0 2.0 0.00 0.00 0.00 50 1009.4
20260504041602 67 166 0.0 1.0 0.00 0.00 0.00 51 1009.3
20260504041503 67 0 0.0 1.0 0.00 0.00 0.00 52 1009.6
20260504034558 68 0 0.0 1.0 0.00 0.00 0.00 48 1009.2
20260504033058 68 0 0.0 2.0 0.00 0.00 0.00 47 1009.2
20260504033005 68 287 0.0 2.0 0.00 0.00 0.00 47 1009.5
20260504031558 68 0 0.0 1.0 0.00 0.00 0.00 47 1009.2
20260504030052 68 0 0.0 1.0 0.00 0.00 0.00 45 1009.2
20260504030002 68 0 0.0 1.0 0.00 0.00 0.00 45 1009.5
20260504024554 68 0 0.0 2.0 0.00 0.00 0.00 47 1009.2
20260504024502 68 0 0.0 2.0 0.00 0.00 0.00 47 1009.5
20260504023056 70 0 0.0 4.0 0.00 0.00 0.00 46 1009.3
20260504023002 70 294 0.0 4.0 0.00 0.00 0.00 46 1009.6
20260504021553 71 222 1.0 4.0 0.00 0.00 0.00 44 1009.6
20260504020049 71 299 1.0 3.0 0.00 0.00 0.00 42 1009.7
20260504014549 70 286 1.0 4.0 0.00 0.00 0.00 45 1009.8
20260504014502 70 209 1.0 4.0 0.00 0.00 0.00 45 1010.1
20260504013047 69 188 1.0 4.0 0.00 0.00 0.00 47 1010.0
20260504013001 69 244 1.0 4.0 0.00 0.00 0.00 47 1010.3
20260504011546 69 237 1.0 3.0 0.00 0.00 0.00 47 1010.1
20260504010047 69 257 2.0 4.0 0.00 0.00 0.00 50 1010.2
20260504010002 69 221 2.0 4.0 0.00 0.00 0.00 49 1010.5
20260504004547 69 248 1.0 5.0 0.00 0.00 0.00 48 1010.3
20260504003046 67 213 2.0 5.0 0.00 0.00 0.00 52 1010.5
20260504001541 66 275 2.0 5.0 0.00 0.00 0.00 56 1010.7
20260504000041 65 232 3.0 7.0 0.00 0.00 0.00 58 1010.8
20260504000005 65 221 3.0 7.0 0.00 0.00 0.00 59 1011.2
20260503234542 65 59 2.0 5.0 0.00 0.00 0.00 60 1011.1
20260503234502 64 156 2.0 5.0 0.00 0.00 0.00 60 1011.4
20260503233039 65 246 2.0 5.0 0.00 0.00 0.00 62 1011.2
20260503231540 65 58 2.0 5.0 0.00 0.00 0.00 63 1011.3
20260503231502 65 31 2.0 5.0 0.00 0.00 0.00 62 1011.6
20260503230039 64 219 1.0 4.0 0.00 0.00 0.00 65 1011.5
20260503230002 64 300 1.0 3.0 0.00 0.00 0.00 65 1011.8
20260503224540 62 200 2.0 7.0 0.00 0.00 0.00 72 1011.6
20260503223040 65 248 1.0 4.0 0.00 0.00 0.00 69 1011.8
20260503221539 71 216 1.0 4.0 0.00 0.00 0.00 57 1012.1
20260503220034 78 0 1.0 3.0 0.00 0.00 0.00 38 1011.9
20260503220002 78 0 1.0 2.0 0.00 0.00 0.00 38 1012.2
20260503214536 78 259 1.0 4.0 0.00 0.00 0.00 38 1012.0
20260503214505 78 228 1.0 4.0 0.00 0.00 0.00 39 1012.3
20260503213035 77 222 1.0 4.0 0.00 0.00 0.00 40 1012.1
20260503211535 75 0 1.0 3.0 0.00 0.00 0.00 42 1012.2
20260503211502 75 256 1.0 3.0 0.00 0.00 0.00 43 1012.6
20260503210031 74 188 1.0 4.0 0.00 0.00 0.00 43 1012.5
20260503204532 73 0 1.0 4.0 0.00 0.00 0.00 44 1012.7
20260503204502 72 173 1.0 3.0 0.00 0.00 0.00 44 1013.0
20260503203034 66 0 0.0 3.0 0.00 0.00 0.00 54 1012.9